This is the latest recevied weather packets stored in our database for station/object PD2BVG. If no packets are shown the sender has not sent any weather packets the latest 1 day(s).
| Time | Temp. | Humidity | Pressure | Rain* | Wind** | Luminosity | Snow |
|---|---|---|---|---|---|---|---|
| 1778015491 | 11.11° C | 81% | 1011.1 hPa | 0 mm | 4.47 m/s, 350° | 0 W/m² | - |
| 1778015432 | 11.11° C | 81% | 1011.2 hPa | 0 mm | 4.02 m/s, 353° | 0 W/m² | - |
| 1778015370 | 11.11° C | 81% | 1011.1 hPa | 0 mm | 3.58 m/s, 0° | 0 W/m² | - |
| 1778015311 | 11.11° C | 82% | 1011.2 hPa | 0 mm | 3.13 m/s, 0° | 0 W/m² | - |
| 1778015250 | 11.11° C | 82% | 1011.2 hPa | 0 mm | 2.68 m/s, 340° | 0 W/m² | - |
| 1778015190 | 11.11° C | 82% | 1011.2 hPa | 0 mm | 2.68 m/s, 344° | 0 W/m² | - |
| 1778015129 | 11.11° C | 81% | 1011.1 hPa | 0 mm | 3.13 m/s, 0° | 0 W/m² | - |
| 1778015066 | 11.11° C | 82% | 1011.2 hPa | 0 mm | 3.13 m/s, 0° | 0 W/m² | - |
| 1778015007 | 11.11° C | 82% | 1011.1 hPa | 0 mm | 3.58 m/s, 0° | 0 W/m² | - |
| 1778014946 | 11.11° C | 82% | 1011.1 hPa | 0 mm | 3.13 m/s, 0° | 0 W/m² | - |
| 1778014888 | 11.11° C | 82% | 1011.2 hPa | 0 mm | 3.13 m/s, 344° | 0 W/m² | - |
| 1778014827 | 11.11° C | 82% | 1011.2 hPa | 0 mm | 3.58 m/s, 338° | 0 W/m² | - |
| 1778014765 | 11.11° C | 82% | 1011.2 hPa | 0 mm | 3.58 m/s, 10° | 0 W/m² | - |
| 1778014705 | 11.11° C | 82% | 1011.2 hPa | 0 mm | 3.13 m/s, 298° | 0 W/m² | - |
| 1778014642 | 11.11° C | 82% | 1011.2 hPa | 0 mm | 3.58 m/s, 0° | 0 W/m² | - |
| 1778014582 | 11.11° C | 82% | 1011.2 hPa | 0 mm | 4.02 m/s, 0° | 0 W/m² | - |
| 1778014520 | 11.11° C | 82% | 1011.2 hPa | 0 mm | 3.13 m/s, 0° | 0 W/m² | - |
| 1778014461 | 11.11° C | 82% | 1011.2 hPa | 0 mm | 2.68 m/s, 344° | 0 W/m² | - |
| 1778014400 | 11.11° C | 82% | 1011.2 hPa | 0 mm | 3.13 m/s, 347° | 0 W/m² | - |
| 1778014340 | 11.11° C | 82% | 1011.1 hPa | 0 mm | 4.02 m/s, 313° | 0 W/m² | - |
| 1778014279 | 11.11° C | 82% | 1011.3 hPa | 0 mm | 4.02 m/s, 326° | 0 W/m² | - |
| 1778014219 | 11.11° C | 82% | 1011.1 hPa | 0 mm | 3.58 m/s, 0° | 0 W/m² | - |
| 1778014158 | 11.11° C | 82% | 1011.2 hPa | 0 mm | 3.58 m/s, 31° | 0 W/m² | - |
| 1778014097 | 11.11° C | 82% | 1011.3 hPa | 0 mm | 4.47 m/s, 344° | 0 W/m² | - |
| 1778014035 | 11.11° C | 82% | 1011.2 hPa | 0 mm | 4.02 m/s, 300° | 0 W/m² | - |
* Rain latest hour (hover to see other rain measurements)
** Current wind speed in m/s (hover to see current wind gust speed)